COSMOS 2456 (730)

Last updated on Mon Oct 14 2024 00:03:08 GMT+0000 (Coordinated Universal Time)

1 36111U 09070A 24287.47362534 .00000082 00000+0 00000+0 0 9993 2 36111 64.6698 91.8987 0001350 332.8354 74.7725 2.13103683115435
UTC large
Height (km)
Speed (km/s)
/
Latitude / Longitude
Inclination (degrees)
Orbital Period (minutes)
Azimuth
Elevation
Range (km)
Doppler Factor

Next 0 passes for location: London (51.5072 / 0.1276)

Sorry there are no passes over London.